ATLAS CENTAUR 2 DEB, 698

Orbit data source: Space-Track

ATLAS CENTAUR 2 DEB, 698 is space debris in LEO originally from a launch on Wed, 27 Nov 1963 UTC launched from the Air Force Eastern Test Range (AFETR). Debris objects in space refer to the collection of defunct objects orbiting the Earth. Examples of debris include non-operational satellites, rocket bodies, and fragments generated from explosions, collisions, or faulty payload assembly.

Loading next visibility...
ATLAS CENTAUR 2 DEB details
Identifier
698, 1963-047D
Orbit
LEO
Last TLE update23 hours ago
Origin
Flag of USNASA LeRC (US)
ManufacturerGD/Convair
MissionSpacecraft
Bus & MotorCENTAUR PART, Unknown motor
MassUnknown
Launch date (UTC)
1963-11-27 (61 years ago)
Launch vehicleUnknown
Launch site
Air Force Eastern Test Range (AFETR)
Object type
Payload
Rocket body
Debris
Shape & HBRUnknown
Radar Cross Section0.300 m², Medium (>0.1 m² and < 1m²)

Expand to show TLE details & history

TLE from 23 hours ago
0 ATLAS CENTAUR 2 DEB
1 00698U 63047D   25017.70317371  .00003759  00000-0  13933-2 0  9992
2 00698  29.9205 158.2782 0533606 153.5473 209.3402 13.72932926  8121
Epoch: 2025-01-17T16:52Z
Definitive object data (Epoch: 2025-01-17T16:52:34.208Z)
Latitude0.00002°
Longitude147.77269°
Altitude1,334.869 km
Speed7.021 km/s
True Right ascension10h 33m 06s
True Declination0° 00' 00"
Sunlit
Object was in full shadow at TLE epoch
Visualization TLE readout
Latitude15.28936°
Longitude-65.53941°
Altitude603.564 km
Speed7.755 km/s
Apparent Right ascension23h 25m 51s
Apparent Declination-24° 10' 34"
Sunlit
Object is in daylight
Visualization observer readout
Local Sidereal Time17:09:15
Azimuth106.631° ESE
Elevation-18.263°
Doppler factor1
Orbital elements
Apogee altitude1,386.148 km
Perigee altitude599.51 km
Semi-major axis7,370.966 km
Eccentricity0.0533606
Inclination29.9205°
RAAN158.2782°
Arg. of periapsis153.5473°
True anomaly206.51016°
Mean anomaly209.3402°
Eccentric anomaly207.90915°
Mean motion3.4297 °/min
BSTAR0.0013933
Orbital period104.97 mins
Loading maneuver chart data...

ATLAS CENTAUR 2 DEB Visibility forecast

Observer location: undefined°, undefined

Span
Click to sort rows by Start time (UTC) header in descending order
Start Az.
Max El. time (UTC)
Max El. Az.
Max El.
End time (UTC)
End Az.
4 mins2025-01-18 17:51:26.461Z227.133° WSW2025-01-18 17:53:26.461Z202.107° SSW13.557°2025-01-18 17:55:26.461Z176.095° S
5 mins2025-01-19 10:56:26.461Z173.003° S2025-01-19 10:58:26.461Z157.613° S13.155°2025-01-19 11:01:26.461Z133.114° SE
9 mins2025-01-19 12:45:26.461Z211.811° SW2025-01-19 12:49:26.461Z173.624° S23.948°2025-01-19 12:54:26.461Z117.33° SE
9 mins2025-01-19 14:36:26.461Z235.28° WSW2025-01-19 14:41:26.461Z173.281° S28.046°2025-01-19 14:45:26.461Z122.811° SE
|